Kaneohe MCBH, HI

2:34 AM HST on September 18, 2019 (GMT -1000)
Kaneohe Bay Marine Corps Air Facility

Weather History for PHNG - August, 2019

Change the Weather History Date:

Thursday, August 22, 2019

  Actual Average Record
Temperature  
Mean Temperature 82 °F -  
Max Temperature 87 °F 81 °F 91 °F (2013)
Min Temperature 78 °F 73 °F 46 °F (1998)
Cooling Degree Days 18    
Growing Degree Days 32 (Base 50)    
Moisture  
Dew Point 72 °F    
Average Humidity 72    
Maximum Humidity 83    
Minimum Humidity 61    
Precipitation  
Precipitation 0.00 in - - ()
Sea Level Pressure  
Sea Level Pressure 29.98 in    
Wind  
Wind Speed 8 mph ()    
Max Wind Speed 13 mph    
Max Gust Speed 18 mph    
Visibility 9.9 miles    
Events Rain    
Averages and records for this station are not official NWS values.
T = Trace of Precipitation, MM = Missing Value Source: Averaged Metar Reports

Daily Weather History Graph

Daily Weather History Graph

Search for Another Location

Airport or City:

Astronomy

Aug. 22, 2019 Rise Set
Actual Time 6:11 AM HST 6:55 PM HST
Civil Twilight 5:48 AM HST 7:18 PM HST
Nautical Twilight 5:21 AM HST 7:45 PM HST
Astronomical Twilight 4:54 AM HST 8:12 PM HST
Moon 11:44 PM HST (8/22) 12:09 PM HST (8/22)
Length of Visible Light 13h 30m
Length of Day
12h 44m
Waning Gibbous, 57% of the Moon is Illuminated
Aug 22
Waning Gibbous
Aug 23
Last Quarter
Aug 30
New
Sep 5
First Quarter
Sep 13
Full

Hourly Weather History & Observations

Time (HST) Temp. Heat Index Dew Point Humidity Pressure Visibility Wind Dir Wind Speed Gust Speed Precip Events Conditions
12:24 AM 81.0 °F 86.2 °F 73.9 °F 79% 30.03 in 10.0 mi ENE 9.2 mph - N/A   Scattered Clouds
12:57 AM 81.0 °F 86.2 °F 73.9 °F 79% 30.00 in 10.0 mi ENE 9.2 mph - N/A   Mostly Cloudy
1:08 AM 81.0 °F 86.2 °F 73.9 °F 79% 30.01 in 10.0 mi ENE 10.4 mph - N/A   Mostly Cloudy
1:17 AM 81.0 °F 86.2 °F 73.9 °F 79% 30.01 in 10.0 mi East 6.9 mph - N/A   Mostly Cloudy
1:57 AM 80.1 °F 84.5 °F 73.9 °F 81% 29.99 in 10.0 mi ENE 10.4 mph - N/A   Overcast
2:16 AM 80.1 °F 83.8 °F 72.0 °F 76% 30.00 in 10.0 mi East 11.5 mph - N/A   Mostly Cloudy
2:55 AM 78.8 °F - 73.4 °F 83% 29.99 in 10.0 mi East 6.9 mph - 0.00 in   Scattered Clouds
2:57 AM 79.0 °F - 73.0 °F 82% 29.98 in 10.0 mi East 10.4 mph - 0.00 in   Partly Cloudy
3:57 AM 80.1 °F 84.5 °F 73.9 °F 81% 29.98 in 10.0 mi ENE 8.1 mph - N/A   Scattered Clouds
4:57 AM 80.1 °F 84.5 °F 73.9 °F 81% 29.98 in 10.0 mi ENE 5.8 mph - N/A   Partly Cloudy
5:57 AM 80.1 °F 83.8 °F 72.0 °F 76% 29.99 in 10.0 mi East 9.2 mph - N/A   Scattered Clouds
6:57 AM 82.0 °F 87.4 °F 73.0 °F 74% 30.00 in 10.0 mi East 8.1 mph - N/A   Mostly Cloudy
7:11 AM 82.0 °F 86.7 °F 72.0 °F 71% 30.02 in 10.0 mi ENE 8.1 mph - N/A   Mostly Cloudy
7:57 AM 84.0 °F 89.6 °F 72.0 °F 67% 30.01 in 10.0 mi ENE 10.4 mph - N/A   Mostly Cloudy
8:57 AM 84.9 °F 90.7 °F 72.0 °F 65% 30.01 in 10.0 mi ENE 10.4 mph - N/A   Partly Cloudy
9:57 AM 86.0 °F 92.2 °F 72.0 °F 63% 30.01 in 10.0 mi East 12.7 mph - N/A   Partly Cloudy
10:57 AM 84.9 °F 91.4 °F 73.0 °F 67% 30.00 in 10.0 mi ENE 9.2 mph - N/A   Mostly Cloudy
11:57 AM 86.0 °F 93.0 °F 73.0 °F 65% 29.99 in 10.0 mi NE 11.5 mph - N/A   Overcast
12:57 PM 87.1 °F 93.6 °F 72.0 °F 61% 29.97 in 10.0 mi NE 11.5 mph - N/A   Clear
1:57 PM 86.0 °F 92.2 °F 72.0 °F 63% 29.95 in 10.0 mi ENE 11.5 mph - N/A   Partly Cloudy
2:57 PM 86.0 °F 93.0 °F 73.0 °F 65% 29.93 in 10.0 mi ENE 12.7 mph - N/A   Mostly Cloudy
3:57 PM 84.9 °F 90.7 °F 72.0 °F 65% 29.92 in 10.0 mi NE 12.7 mph 18.4 mph N/A   Mostly Cloudy
4:57 PM 84.9 °F 90.7 °F 72.0 °F 65% 29.92 in 10.0 mi ENE 10.4 mph - N/A   Mostly Cloudy
5:57 PM 82.9 °F 87.5 °F 71.1 °F 67% 29.93 in 10.0 mi ENE 9.2 mph - N/A   Mostly Cloudy
6:57 PM 82.0 °F 86.7 °F 72.0 °F 71% 29.93 in 10.0 mi ENE 10.4 mph - N/A   Mostly Cloudy
7:09 PM 82.0 °F 86.7 °F 72.0 °F 71% 29.95 in 6.0 mi ENE 8.1 mph - 0.00 in Rain Light Rain
7:16 PM 82.0 °F 86.7 °F 72.0 °F 71% 29.96 in 10.0 mi ENE 10.4 mph 16.1 mph 0.00 in   Mostly Cloudy
7:57 PM 81.0 °F 84.9 °F 71.1 °F 72% 29.95 in 10.0 mi East 8.1 mph - 0.00 in   Scattered Clouds
8:57 PM 81.0 °F 85.2 °F 72.0 °F 74% 29.96 in 10.0 mi East 6.9 mph - N/A   Mostly Cloudy
9:57 PM 81.0 °F 84.9 °F 71.1 °F 72% 29.97 in 10.0 mi East 6.9 mph - N/A   Partly Cloudy
10:57 PM 81.0 °F 84.9 °F 71.1 °F 72% 29.96 in 10.0 mi East 9.2 mph - N/A   Mostly Cloudy
11:57 PM 81.0 °F 84.9 °F 71.1 °F 72% 29.95 in 10.0 mi East 8.1 mph - N/A   Overcast